TITAN 3C TRANSTAGE DEB, 3386

Orbit data source: Space-Track

TITAN 3C TRANSTAGE DEB, 3386 is space debris in LEO originally from a launch on Fri, 15 Oct 1965 UTC launched from the Air Force Eastern Test Range (AFETR). Debris objects in space refer to the collection of defunct objects orbiting the Earth. Examples of debris include non-operational satellites, rocket bodies, and fragments generated from explosions, collisions, or faulty payload assembly.

Loading next visibility...
Identifier
3386, 1965-082MY
Orbit
LEO
Country
Flag of USUS
Related business
Manufacturer
Unknown
Mission
Spacecraft
Bus & Motor
Unknown
Mass
Unknown
Launch date (UTC)
1965-10-15 (61 years ago)
Launch vehicle
Unknown
Launch site
Air Force Eastern Test Range (AFETR)
Object type
Payload
Rocket body
Debris
Shape & HBR
Unknown shape, 0.1 m
Radar Cross Section
Medium (>0.1 m² and <1 m²)

Expand to show TLE details & history
Last TLE update: 17 hours ago

TLE from 17 hours ago
0 TITAN 3C TRANSTAGE DEB
1 03386U 65082MY  26199.53301360  .00001529  00000-0  12069-3 0  9997
2 03386  32.3717 342.7883 0005369 183.3870 176.6755 14.98744502250539
Epoch: 2026-07-18T12:47Z
TLE epoch observation values (Epoch: 2026-07-18T12:47:32.375Z)
Latitude
0.00004°
Longitude
-145.44093°
Altitude
573.15 km
Speed
7.575 km/s
True Right ascension
22h 51m 09s
True Declination
0° 00' 00"
Sunlit
Object was in full shadow at epoch
Visualization orbit readout
Latitude
Unknown
Longitude
Unknown
Altitude
Unknown
Speed
Unknown
Apparent Right ascension
Unknown
Apparent Declination
Unknown
Sunlit
N/A
Visualization observer readout
Local Sidereal Time
18:55:29
Azimuth
Unknown
Elevation
Unknown
Doppler factor
Unknown
Orbital elements
Apogee altitude
578.125 km
Perigee altitude
570.66 km
Semi-major axis
6,952.53 km
Eccentricity
0.00054
Inclination
32.3717°
RAAN
342.7883°
Arg. of periapsis
183.387°
True anomaly
176.67907°
Mean anomaly
176.6755°
Eccentric anomaly
176.67728°
Mean motion
3.74394 °/min
Orbital period
96.16 mins
BSTAR
0.00012069

Documentation

Showing up to 5 results
|